Flag for Germany Weather past 2 weeks in Dessau-Rosslau, Saxony-Anhalt, Germany

34 °F

Passing clouds.

Feels Like: 27 °F
Forecast: 29 / 41 °F
Wind: 8 mph from Southwest

Location: Leipzig-Schkeuditz

Current Time: Nov 27, 2015 at 7:59:18 AM

Latest Report: Nov 27, 2015 at 7:20 AM

Visibility: 5 mi

Pressure: 30.12 "Hg

Humidity: 100%

Dew point: 34 °F

Location of Dessau-RosslauLocation

Historic Weather in Dessau-Rosslau — Graph


Dessau-Rosslau temperature yesterday

Maximum temperature yesterday: 43 °F (at 2:20 PM)
Minimum temperature yesterday: 32 °F (at 9:50 PM)
Average temperature yesterday: 37 °F

Past Weeks' High & Low Weather Summary

High59 °F (Nov 17, 1:50 PM)100% (Nov 14, 11:50 PM)30.30 "Hg (Nov 14, 11:50 PM)
Low28 °F (Nov 23, 10:20 PM)55% (Nov 18, 1:20 PM)29.36 "Hg (Nov 21, 12:20 PM)
Average45 °F86%29.87 "Hg
* Reported Nov 12 6:50 AM — Nov 27 6:20 AM, Dessau-Rosslau, Weather by CustomWeather, © 2015

Note: Actual official high and low records may vary slightly from our data, if they occured in-between our weather recording intervals... More about our weather records


Dessau-Rosslau weather history for previous 24 hours

Time TempWeatherWind HumidityBarometerVisibility
6:20 AM
Fri, Nov 27
34 °FPassing clouds.7 mph100%30.12 "Hg4 mi
5:50 AM34 °FPassing clouds.8 mph100%30.12 "Hg4 mi
4:50 AM34 °FPassing clouds.6 mph93%30.12 "Hg4 mi
4:20 AM32 °FPassing clouds.8 mph100%30.12 "Hg4 mi
3:50 AM32 °FPassing clouds.7 mph100%30.12 "Hg5 mi
3:20 AM32 °FPassing clouds.5 mph93%30.15 "Hg5 mi
2:50 AM30 °FPassing clouds.5 mph100%30.15 "HgN/A
2:20 AM32 °FPassing clouds.6 mph100%30.15 "HgN/A
1:50 AM32 °FPassing clouds.6 mph100%30.15 "HgN/A
1:20 AM32 °FPassing clouds.5 mph100%30.15 "HgN/A
12:50 AM32 °FPassing clouds.5 mph93%30.15 "HgN/A
12:20 AM30 °FPassing clouds.6 mph100%30.15 "HgN/A
11:50 PM
Thu, Nov 26
32 °FPassing clouds.6 mph93%30.15 "HgN/A
11:20 PM32 °FPassing clouds.7 mph93%30.12 "HgN/A
10:50 PM32 °FClear.6 mph100%30.12 "Hg10 mi
10:20 PM32 °FPassing clouds.6 mph100%30.12 "HgN/A
9:50 PM32 °FPassing clouds.7 mph100%30.12 "HgN/A
9:20 PM34 °FPassing clouds.7 mph93%30.12 "HgN/A
8:50 PM34 °FPassing clouds.7 mph93%30.12 "HgN/A
8:20 PM34 °FPassing clouds.5 mph93%30.09 "HgN/A
7:50 PM34 °FPassing clouds.6 mph93%30.09 "HgN/A
7:20 PM36 °FPassing clouds.6 mph93%30.09 "HgN/A
6:50 PM36 °FPassing clouds.6 mph93%30.09 "HgN/A
6:20 PM36 °FPassing clouds.6 mph93%30.07 "HgN/A
5:50 PM37 °FPassing clouds.6 mph93%30.07 "HgN/A
5:20 PM37 °FPassing clouds.6 mph93%30.04 "HgN/A
4:50 PM39 °FPassing clouds.5 mph87%30.04 "HgN/A
4:20 PM37 °FPassing clouds.2 mph93%30.04 "HgN/A
3:50 PM41 °FScattered clouds.3 mph81%30.01 "HgN/A
3:20 PM41 °FPartly sunny.5 mph81%30.01 "HgN/A
2:50 PM41 °FBroken clouds.9 mph81%29.98 "HgN/A
2:20 PM43 °FBroken clouds.10 mph81%29.98 "HgN/A
1:50 PM41 °FBroken clouds.8 mph87%29.98 "HgN/A
1:20 PM41 °FPartly sunny.10 mph87%29.98 "HgN/A
12:50 PM41 °FPartly sunny.9 mph87%29.95 "HgN/A
12:20 PM41 °FPartly sunny.12 mph87%29.95 "HgN/A
11:50 AM41 °FBroken clouds.10 mph87%29.92 "HgN/A
11:20 AM41 °FDrizzle. Mostly cloudy.9 mph87%29.92 "HgN/A
10:50 AM41 °FPartly sunny.8 mph87%29.92 "Hg6 mi
10:20 AM39 °FPartly sunny.7 mph93%29.92 "HgN/A
9:50 AM39 °FPartly sunny.6 mph93%29.89 "HgN/A
9:20 AM39 °FPartly sunny.5 mph93%29.89 "HgN/A
8:50 AM37 °FBroken clouds.6 mph93%29.86 "HgN/A
8:20 AM37 °FPartly sunny.6 mph93%29.86 "HgN/A
7:50 AM37 °FPartly sunny.7 mph93%29.83 "HgN/A
7:20 AM37 °FPassing clouds.7 mph93%29.83 "HgN/A
Weather by CustomWeather, © 2015

See weather overviewHow to use our weather pages